Time,TemperatureF,DewpointF,PressureIn,WindDirection,WindDirectionDegrees,WindSpeedMPH,WindSpeedGustMPH,Humidity,HourlyPrecipIn,Conditions,Clouds,dailyrainin,SoftwareType,DateUTC
2013-02-03 00:00:00,19.0,16.0,28.71,NNW,337,0.0,0.0,82,0.00,,,0.00,Rainwise IP-100,2013-02-03 05:00:00,
2013-02-03 00:05:00,19.0,16.0,28.71,NNW,337,0.0,0.0,82,0.00,,,0.00,Rainwise IP-100,2013-02-03 05:05:00,
2013-02-03 00:10:00,18.9,16.0,28.71,NNW,337,0.0,0.0,82,0.00,,,0.00,Rainwise IP-100,2013-02-03 05:10:00,
2013-02-03 00:15:00,18.9,16.0,28.71,NNW,337,0.0,0.0,82,0.00,,,0.00,Rainwise IP-100,2013-02-03 05:15:00,
2013-02-03 00:16:00,18.7,16.0,28.71,NNW,337,0.0,0.0,82,0.00,,,0.00,Rainwise IP-100,2013-02-03 05:16:00,
2013-02-03 00:21:00,18.6,16.0,28.71,NNW,337,0.0,0.0,82,0.00,,,0.00,Rainwise IP-100,2013-02-03 05:21:00,
2013-02-03 00:22:00,18.6,16.0,28.71,NNW,337,0.0,0.0,84,0.00,,,0.00,Rainwise IP-100,2013-02-03 05:22:00,
2013-02-03 00:27:00,18.6,16.0,28.71,NNW,337,0.0,0.0,83,0.00,,,0.00,Rainwise IP-100,2013-02-03 05:27:00,
2013-02-03 00:32:00,18.6,16.0,28.71,NNW,337,0.0,0.0,83,0.00,,,0.00,Rainwise IP-100,2013-02-03 05:32:00,
2013-02-03 00:37:00,18.6,16.0,28.71,NNW,337,0.0,0.0,83,0.00,,,0.00,Rainwise IP-100,2013-02-03 05:37:00,
2013-02-03 00:42:00,18.6,16.0,28.70,NNW,337,0.0,0.0,84,0.00,,,0.00,Rainwise IP-100,2013-02-03 05:42:00,
2013-02-03 00:47:00,18.7,16.0,28.70,NNW,337,0.0,0.0,83,0.00,,,0.00,Rainwise IP-100,2013-02-03 05:47:00,
2013-02-03 00:52:00,18.7,16.0,28.70,NNW,337,0.0,1.0,82,0.00,,,0.00,Rainwise IP-100,2013-02-03 05:52:00,
2013-02-03 00:57:00,18.7,16.0,28.70,NNW,337,0.0,0.0,83,0.00,,,0.00,Rainwise IP-100,2013-02-03 05:57:00,
2013-02-03 01:02:00,18.7,16.0,28.70,NNW,337,0.0,1.0,84,0.00,,,0.00,Rainwise IP-100,2013-02-03 06:02:00,
2013-02-03 01:06:00,18.6,16.0,28.70,NNW,337,0.0,1.0,84,0.00,,,0.00,Rainwise IP-100,2013-02-03 06:06:00,
2013-02-03 01:12:00,18.6,16.0,28.70,NNW,337,0.0,0.0,84,0.00,,,0.00,Rainwise IP-100,2013-02-03 06:12:00,
2013-02-03 01:17:00,18.4,14.0,28.70,NNW,337,0.0,0.0,84,0.00,,,0.00,Rainwise IP-100,2013-02-03 06:17:00,
2013-02-03 01:22:00,18.2,16.0,28.70,NNW,337,0.0,0.0,86,0.00,,,0.00,Rainwise IP-100,2013-02-03 06:22:00,
2013-02-03 01:27:00,17.9,16.0,28.69,NNW,337,0.0,0.0,86,0.00,,,0.00,Rainwise IP-100,2013-02-03 06:27:00,
2013-02-03 01:32:00,17.8,16.0,28.69,NNW,337,0.0,0.0,86,0.00,,,0.00,Rainwise IP-100,2013-02-03 06:32:00,
2013-02-03 01:37:00,17.6,16.0,28.69,NNW,337,0.0,0.0,86,0.00,,,0.00,Rainwise IP-100,2013-02-03 06:37:00,
2013-02-03 01:42:00,17.4,16.0,28.69,NNW,337,0.0,0.0,88,0.00,,,0.00,Rainwise IP-100,2013-02-03 06:42:00,
2013-02-03 01:47:00,17.2,16.0,28.69,NNW,337,0.0,0.0,88,0.00,,,0.00,Rainwise IP-100,2013-02-03 06:47:00,
2013-02-03 01:52:00,17.1,16.0,28.68,NNW,337,0.0,0.0,89,0.00,,,0.00,Rainwise IP-100,2013-02-03 06:52:00,
2013-02-03 01:57:00,16.9,16.0,28.68,NNW,337,0.0,0.0,90,0.00,,,0.00,Rainwise IP-100,2013-02-03 06:57:00,
2013-02-03 02:02:00,16.9,16.0,28.68,NNW,337,0.0,0.0,90,0.00,,,0.00,Rainwise IP-100,2013-02-03 07:02:00,
2013-02-03 02:07:00,16.6,16.0,28.68,NNW,337,0.0,0.0,91,0.00,,,0.00,Rainwise IP-100,2013-02-03 07:07:00,
2013-02-03 02:12:00,16.3,14.0,28.68,NNW,337,0.0,0.0,91,0.00,,,0.00,Rainwise IP-100,2013-02-03 07:12:00,
2013-02-03 02:17:00,16.1,14.0,28.69,NNW,337,0.0,0.0,91,0.00,,,0.00,Rainwise IP-100,2013-02-03 07:17:00,
2013-02-03 02:22:00,15.9,14.0,28.69,NNW,337,0.0,0.0,92,0.00,,,0.00,Rainwise IP-100,2013-02-03 07:22:00,
2013-02-03 02:27:00,15.9,14.0,28.69,NNW,337,0.0,0.0,93,0.00,,,0.00,Rainwise IP-100,2013-02-03 07:27:00,
2013-02-03 02:32:00,15.8,14.0,28.68,NNW,337,0.0,0.0,94,0.00,,,0.00,Rainwise IP-100,2013-02-03 07:32:00,
2013-02-03 02:37:00,15.8,16.0,28.68,NNW,337,0.0,0.0,96,0.00,,,0.00,Rainwise IP-100,2013-02-03 07:37:00,
2013-02-03 02:42:00,15.7,16.0,28.68,NNW,337,0.0,0.0,96,0.00,,,0.00,Rainwise IP-100,2013-02-03 07:42:00,
2013-02-03 02:47:00,15.7,16.0,28.68,NNW,337,0.0,0.0,96,0.00,,,0.00,Rainwise IP-100,2013-02-03 07:47:00,
2013-02-03 02:52:00,15.8,14.0,28.68,NNW,337,0.0,0.0,94,0.00,,,0.00,Rainwise IP-100,2013-02-03 07:52:00,
2013-02-03 02:57:00,16.1,14.0,28.68,NNW,337,0.0,0.0,93,0.00,,,0.00,Rainwise IP-100,2013-02-03 07:57:00,
2013-02-03 03:02:00,16.3,14.0,28.67,NNW,337,0.0,0.0,93,0.00,,,0.00,Rainwise IP-100,2013-02-03 08:02:00,
2013-02-03 03:07:00,16.5,16.0,28.66,NNW,337,0.0,0.0,90,0.00,,,0.00,Rainwise IP-100,2013-02-03 08:07:00,
2013-02-03 03:12:00,16.7,16.0,28.66,NNW,337,0.0,0.0,89,0.00,,,0.00,Rainwise IP-100,2013-02-03 08:12:00,
2013-02-03 03:17:00,16.8,16.0,28.66,NNW,337,0.0,0.0,89,0.00,,,0.00,Rainwise IP-100,2013-02-03 08:17:00,
2013-02-03 03:22:00,16.8,16.0,28.66,NNW,337,0.0,0.0,89,0.00,,,0.00,Rainwise IP-100,2013-02-03 08:22:00,
2013-02-03 03:27:00,16.8,16.0,28.66,NNW,337,0.0,0.0,90,0.00,,,0.00,Rainwise IP-100,2013-02-03 08:27:00,
2013-02-03 03:32:00,16.8,16.0,28.66,NNW,337,0.0,0.0,92,0.00,,,0.00,Rainwise IP-100,2013-02-03 08:32:00,
2013-02-03 03:37:00,16.7,16.0,28.65,NNW,337,0.0,0.0,92,0.00,,,0.00,Rainwise IP-100,2013-02-03 08:37:00,
2013-02-03 03:42:00,16.6,16.0,28.65,NNW,337,0.0,0.0,93,0.00,,,0.00,Rainwise IP-100,2013-02-03 08:42:00,
2013-02-03 03:47:00,16.5,16.0,28.65,NNW,337,0.0,0.0,93,0.00,,,0.00,Rainwise IP-100,2013-02-03 08:47:00,
2013-02-03 03:52:00,16.5,18.0,28.65,NNW,337,0.0,0.0,95,0.00,,,0.00,Rainwise IP-100,2013-02-03 08:52:00,
2013-02-03 03:57:00,16.5,18.0,28.65,NNW,337,0.0,0.0,95,0.00,,,0.00,Rainwise IP-100,2013-02-03 08:57:00,
2013-02-03 04:02:00,16.4,16.0,28.65,NNW,337,0.0,0.0,96,0.00,,,0.00,Rainwise IP-100,2013-02-03 09:02:00,
2013-02-03 04:07:00,16.4,16.0,28.65,NNW,337,0.0,0.0,96,0.00,,,0.00,Rainwise IP-100,2013-02-03 09:07:00,
2013-02-03 04:12:00,16.4,16.0,28.65,NNW,337,0.0,0.0,97,0.00,,,0.00,Rainwise IP-100,2013-02-03 09:12:00,
2013-02-03 04:17:00,16.3,16.0,28.64,NNW,337,0.0,0.0,98,0.00,,,0.00,Rainwise IP-100,2013-02-03 09:17:00,
2013-02-03 04:22:00,16.2,16.0,28.66,NNW,337,0.0,0.0,97,0.00,,,0.00,Rainwise IP-100,2013-02-03 09:22:00,
2013-02-03 04:27:00,16.2,16.0,28.65,NNW,337,0.0,0.0,97,0.00,,,0.00,Rainwise IP-100,2013-02-03 09:27:00,
2013-02-03 04:32:00,16.1,16.0,28.65,NNW,337,0.0,0.0,98,0.00,,,0.00,Rainwise IP-100,2013-02-03 09:32:00,
2013-02-03 04:37:00,15.9,16.0,28.65,NNW,337,0.0,0.0,98,0.00,,,0.00,Rainwise IP-100,2013-02-03 09:37:00,
2013-02-03 04:42:00,15.9,16.0,28.65,NNW,337,0.0,0.0,98,0.00,,,0.00,Rainwise IP-100,2013-02-03 09:42:00,
2013-02-03 04:47:00,15.8,16.0,28.65,NNW,337,0.0,0.0,99,0.00,,,0.00,Rainwise IP-100,2013-02-03 09:47:00,
2013-02-03 04:52:00,15.8,16.0,28.65,NNW,337,0.0,0.0,99,0.00,,,0.00,Rainwise IP-100,2013-02-03 09:52:00,
2013-02-03 04:57:00,15.7,16.0,28.65,NNW,337,0.0,0.0,99,0.00,,,0.00,Rainwise IP-100,2013-02-03 09:57:00,
2013-02-03 05:02:00,15.6,16.0,28.64,NNW,337,0.0,0.0,99,0.00,,,0.00,Rainwise IP-100,2013-02-03 10:02:00,
2013-02-03 05:07:00,15.4,16.0,28.64,NNW,337,0.0,0.0,100,0.00,,,0.00,Rainwise IP-100,2013-02-03 10:07:00,
2013-02-03 05:12:00,15.3,16.0,28.64,NNW,337,0.0,0.0,100,0.00,,,0.00,Rainwise IP-100,2013-02-03 10:12:00,
2013-02-03 05:17:00,15.2,16.0,28.64,NNW,337,0.0,0.0,100,0.00,,,0.00,Rainwise IP-100,2013-02-03 10:17:00,
2013-02-03 05:22:00,15.1,16.0,28.64,NNW,337,0.0,1.0,100,0.00,,,0.00,Rainwise IP-100,2013-02-03 10:22:00,
2013-02-03 05:27:00,14.9,16.0,28.63,NNW,337,0.0,0.0,100,0.00,,,0.00,Rainwise IP-100,2013-02-03 10:27:00,
2013-02-03 05:32:00,14.8,16.0,28.63,NNW,337,0.0,0.0,100,0.00,,,0.00,Rainwise IP-100,2013-02-03 10:32:00,
2013-02-03 05:37:00,14.8,16.0,28.63,NNW,337,0.0,0.0,100,0.00,,,0.00,Rainwise IP-100,2013-02-03 10:37:00,
2013-02-03 05:42:00,14.8,16.0,28.63,NNW,337,0.0,0.0,100,0.00,,,0.00,Rainwise IP-100,2013-02-03 10:42:00,
2013-02-03 05:47:00,14.7,16.0,28.63,NNW,337,0.0,0.0,100,0.00,,,0.00,Rainwise IP-100,2013-02-03 10:47:00,
2013-02-03 05:52:00,14.6,16.0,28.63,NNW,337,0.0,0.0,100,0.00,,,0.00,Rainwise IP-100,2013-02-03 10:52:00,
2013-02-03 05:57:00,14.5,16.0,28.63,NNW,337,0.0,0.0,100,0.00,,,0.00,Rainwise IP-100,2013-02-03 10:57:00,
2013-02-03 06:02:00,14.3,14.0,28.63,NNW,337,0.0,0.0,100,0.00,,,0.00,Rainwise IP-100,2013-02-03 11:02:00,
2013-02-03 06:07:00,13.9,14.0,28.63,NNW,337,0.0,0.0,100,0.00,,,0.00,Rainwise IP-100,2013-02-03 11:07:00,
2013-02-03 06:12:00,13.7,14.0,28.63,NNW,337,0.0,0.0,100,0.00,,,0.00,Rainwise IP-100,2013-02-03 11:12:00,
2013-02-03 06:17:00,13.5,14.0,28.63,NNW,337,0.0,0.0,100,0.00,,,0.00,Rainwise IP-100,2013-02-03 11:17:00,
2013-02-03 06:22:00,13.2,14.0,28.63,NNW,337,0.0,0.0,100,0.00,,,0.00,Rainwise IP-100,2013-02-03 11:22:00,
2013-02-03 06:27:00,12.9,14.0,28.63,NNW,337,0.0,0.0,100,0.00,,,0.00,Rainwise IP-100,2013-02-03 11:27:00,
2013-02-03 06:32:00,12.6,14.0,28.63,NNW,337,0.0,0.0,100,0.00,,,0.00,Rainwise IP-100,2013-02-03 11:32:00,
2013-02-03 06:37:00,12.4,14.0,28.62,NNW,337,0.0,0.0,100,0.00,,,0.00,Rainwise IP-100,2013-02-03 11:37:00,
2013-02-03 06:42:00,12.4,14.0,28.62,NNW,337,0.0,0.0,100,0.00,,,0.00,Rainwise IP-100,2013-02-03 11:42:00,
2013-02-03 06:47:00,12.5,14.0,28.62,NNW,337,0.0,0.0,100,0.00,,,0.00,Rainwise IP-100,2013-02-03 11:47:00,
2013-02-03 06:52:00,12.9,14.0,28.62,NNW,337,0.0,0.0,100,0.00,,,0.00,Rainwise IP-100,2013-02-03 11:52:00,
2013-02-03 06:57:00,13.1,14.0,28.62,NNW,337,0.0,0.0,100,0.00,,,0.00,Rainwise IP-100,2013-02-03 11:57:00,
2013-02-03 07:02:00,12.9,14.0,28.62,NNW,337,0.0,0.0,100,0.00,,,0.00,Rainwise IP-100,2013-02-03 12:02:00,
2013-02-03 07:07:00,12.8,14.0,28.62,NNW,337,0.0,1.0,100,0.00,,,0.00,Rainwise IP-100,2013-02-03 12:07:00,
2013-02-03 07:12:00,12.6,14.0,28.62,NNW,337,0.0,1.0,100,0.00,,,0.00,Rainwise IP-100,2013-02-03 12:12:00,
2013-02-03 07:17:00,12.6,14.0,28.62,NNW,337,0.0,0.0,100,0.00,,,0.00,Rainwise IP-100,2013-02-03 12:17:00,
2013-02-03 07:22:00,12.5,14.0,28.61,NNW,337,0.0,1.0,100,0.00,,,0.00,Rainwise IP-100,2013-02-03 12:22:00,
2013-02-03 07:27:00,12.4,14.0,28.61,NNW,337,0.0,1.0,100,0.00,,,0.00,Rainwise IP-100,2013-02-03 12:27:00,
2013-02-03 07:32:00,12.5,14.0,28.62,NNW,337,0.0,0.0,100,0.00,,,0.00,Rainwise IP-100,2013-02-03 12:32:00,
2013-02-03 07:37:00,12.5,14.0,28.62,NNW,337,0.0,0.0,100,0.00,,,0.00,Rainwise IP-100,2013-02-03 12:37:00,
2013-02-03 07:42:00,12.5,14.0,28.62,NNW,337,0.0,0.0,100,0.00,,,0.00,Rainwise IP-100,2013-02-03 12:42:00,
2013-02-03 07:47:00,12.7,14.0,28.62,NNW,337,0.0,0.0,100,0.00,,,0.00,Rainwise IP-100,2013-02-03 12:47:00,
2013-02-03 07:52:00,13.3,14.0,28.62,NNW,337,0.0,0.0,100,0.00,,,0.00,Rainwise IP-100,2013-02-03 12:52:00,
2013-02-03 07:57:00,13.6,14.0,28.62,NNW,337,0.0,0.0,100,0.00,,,0.00,Rainwise IP-100,2013-02-03 12:57:00,
2013-02-03 08:02:00,13.9,14.0,28.63,NNW,337,0.0,0.0,100,0.00,,,0.00,Rainwise IP-100,2013-02-03 13:02:00,
2013-02-03 08:07:00,14.5,16.0,28.63,NNW,337,0.0,0.0,100,0.00,,,0.00,Rainwise IP-100,2013-02-03 13:07:00,
2013-02-03 08:12:00,14.8,16.0,28.63,NNW,337,0.0,0.0,100,0.00,,,0.00,Rainwise IP-100,2013-02-03 13:12:00,
2013-02-03 08:17:00,15.4,16.0,28.63,NNW,337,0.0,0.0,98,0.00,,,0.00,Rainwise IP-100,2013-02-03 13:17:00,
2013-02-03 08:22:00,15.9,16.0,28.64,NNW,337,0.0,0.0,98,0.00,,,0.00,Rainwise IP-100,2013-02-03 13:22:00,
2013-02-03 08:27:00,16.4,16.0,28.64,NNW,337,0.0,0.0,97,0.00,,,0.00,Rainwise IP-100,2013-02-03 13:27:00,
2013-02-03 08:32:00,16.8,16.0,28.63,North,360,0.0,1.0,93,0.00,,,0.00,Rainwise IP-100,2013-02-03 13:32:00,
2013-02-03 08:37:00,16.9,16.0,28.64,North,360,0.0,2.0,92,0.00,,,0.00,Rainwise IP-100,2013-02-03 13:37:00,
2013-02-03 08:42:00,16.8,16.0,28.64,SSE,157,0.0,4.0,91,0.00,,,0.00,Rainwise IP-100,2013-02-03 13:42:00,
2013-02-03 08:47:00,16.9,16.0,28.64,WSW,247,0.0,3.0,90,0.00,,,0.00,Rainwise IP-100,2013-02-03 13:47:00,
2013-02-03 08:52:00,17.1,16.0,28.64,East,90,0.0,3.0,88,0.00,,,0.00,Rainwise IP-100,2013-02-03 13:52:00,
2013-02-03 08:57:00,17.4,16.0,28.64,SE,135,2.0,3.0,88,0.00,,,0.00,Rainwise IP-100,2013-02-03 13:57:00,
2013-02-03 09:02:00,17.6,16.0,28.64,SE,135,0.0,2.0,86,0.00,,,0.00,Rainwise IP-100,2013-02-03 14:02:00,
2013-02-03 09:07:00,17.9,14.0,28.64,ESE,112,0.0,3.0,84,0.00,,,0.00,Rainwise IP-100,2013-02-03 14:07:00,
2013-02-03 09:12:00,18.4,16.0,28.64,ESE,112,0.0,2.0,85,0.00,,,0.00,Rainwise IP-100,2013-02-03 14:12:00,
2013-02-03 09:17:00,18.8,16.0,28.64,East,90,1.0,3.0,82,0.00,,,0.00,Rainwise IP-100,2013-02-03 14:17:00,
2013-02-03 09:22:00,18.9,16.0,28.64,SE,135,1.0,4.0,81,0.00,,,0.00,Rainwise IP-100,2013-02-03 14:22:00,
2013-02-03 09:27:00,19.1,16.0,28.64,SE,135,0.0,2.0,80,0.00,,,0.00,Rainwise IP-100,2013-02-03 14:27:00,
2013-02-03 09:32:00,19.3,16.0,28.64,ESE,112,1.0,3.0,79,0.00,,,0.00,Rainwise IP-100,2013-02-03 14:32:00,
2013-02-03 09:37:00,19.6,14.0,28.63,SSE,157,3.0,5.0,77,0.00,,,0.00,Rainwise IP-100,2013-02-03 14:37:00,
2013-02-03 09:42:00,19.9,14.0,28.63,ESE,112,0.0,6.0,76,0.00,,,0.00,Rainwise IP-100,2013-02-03 14:42:00,
2013-02-03 09:47:00,20.2,14.0,28.63,ENE,67,0.0,2.0,76,0.00,,,0.00,Rainwise IP-100,2013-02-03 14:47:00,
2013-02-03 09:52:00,20.8,14.0,28.63,WSW,247,2.0,6.0,74,0.00,,,0.00,Rainwise IP-100,2013-02-03 14:52:00,
2013-02-03 09:57:00,21.5,14.0,28.63,SSE,157,0.0,3.0,70,0.00,,,0.00,Rainwise IP-100,2013-02-03 14:57:00,
2013-02-03 10:02:00,21.9,14.0,28.63,ENE,67,0.0,4.0,70,0.00,,,0.00,Rainwise IP-100,2013-02-03 15:02:00,
2013-02-03 10:07:00,22.4,14.0,28.63,ESE,112,1.0,5.0,70,0.00,,,0.00,Rainwise IP-100,2013-02-03 15:07:00,
2013-02-03 10:12:00,23.0,14.0,28.63,WSW,247,4.0,5.0,66,0.00,,,0.00,Rainwise IP-100,2013-02-03 15:12:00,
2013-02-03 10:17:00,23.5,14.0,28.63,ENE,67,4.0,5.0,65,0.00,,,0.00,Rainwise IP-100,2013-02-03 15:17:00,
2013-02-03 10:22:00,23.4,14.0,28.63,ENE,67,0.0,5.0,64,0.00,,,0.00,Rainwise IP-100,2013-02-03 15:22:00,
2013-02-03 10:27:00,23.8,14.0,28.63,NNE,22,0.0,4.0,63,0.00,,,0.00,Rainwise IP-100,2013-02-03 15:27:00,
2013-02-03 10:32:00,23.9,14.0,28.63,South,180,0.0,3.0,63,0.00,,,0.00,Rainwise IP-100,2013-02-03 15:32:00,
2013-02-03 10:37:00,24.2,14.0,28.63,SW,225,2.0,2.0,64,0.00,,,0.00,Rainwise IP-100,2013-02-03 15:37:00,
2013-02-03 10:42:00,24.3,14.0,28.62,North,360,0.0,2.0,62,0.00,,,0.00,Rainwise IP-100,2013-02-03 15:42:00,
2013-02-03 10:47:00,24.6,16.0,28.62,East,90,0.0,0.0,63,0.00,,,0.00,Rainwise IP-100,2013-02-03 15:47:00,
2013-02-03 10:52:00,24.4,14.0,28.62,SSW,202,1.0,3.0,63,0.00,,,0.00,Rainwise IP-100,2013-02-03 15:52:00,
2013-02-03 10:57:00,24.9,16.0,28.61,ESE,112,0.0,3.0,61,0.00,,,0.00,Rainwise IP-100,2013-02-03 15:57:00,
2013-02-03 11:02:00,25.6,14.0,28.61,WNW,292,2.0,2.0,59,0.00,,,0.00,Rainwise IP-100,2013-02-03 16:02:00,
2013-02-03 11:07:00,25.8,14.0,28.61,SSE,157,0.0,2.0,59,0.00,,,0.00,Rainwise IP-100,2013-02-03 16:07:00,
2013-02-03 11:12:00,26.5,16.0,28.60,WNW,292,0.0,5.0,57,0.00,,,0.00,Rainwise IP-100,2013-02-03 16:12:00,
2013-02-03 11:17:00,26.9,16.0,28.60,SW,225,3.0,3.0,58,0.00,,,0.00,Rainwise IP-100,2013-02-03 16:17:00,
2013-02-03 11:22:00,26.5,16.0,28.59,WSW,247,4.0,7.0,57,0.00,,,0.00,Rainwise IP-100,2013-02-03 16:22:00,
2013-02-03 11:27:00,26.7,14.0,28.59,WSW,247,3.0,6.0,54,0.00,,,0.00,Rainwise IP-100,2013-02-03 16:27:00,
2013-02-03 11:32:00,25.8,14.0,28.60,South,180,1.0,7.0,57,0.00,,,0.00,Rainwise IP-100,2013-02-03 16:32:00,
2013-02-03 11:37:00,26.6,14.0,28.58,ESE,112,3.0,7.0,55,0.00,,,0.00,Rainwise IP-100,2013-02-03 16:37:00,
2013-02-03 11:42:00,24.8,14.0,28.59,East,90,4.0,7.0,57,0.00,,,0.00,Rainwise IP-100,2013-02-03 16:42:00,
2013-02-03 11:47:00,24.7,14.0,28.59,East,90,7.0,7.0,59,0.00,,,0.00,Rainwise IP-100,2013-02-03 16:47:00,
2013-02-03 11:52:00,25.6,14.0,28.58,NW,315,0.0,7.0,56,0.00,,,0.00,Rainwise IP-100,2013-02-03 16:52:00,
2013-02-03 11:57:00,25.4,14.0,28.58,SE,135,2.0,6.0,57,0.00,,,0.00,Rainwise IP-100,2013-02-03 16:57:00,
2013-02-03 12:02:00,25.9,14.0,28.58,East,90,0.0,6.0,58,0.00,,,0.00,Rainwise IP-100,2013-02-03 17:02:00,
2013-02-03 12:07:00,25.9,14.0,28.56,ESE,112,0.0,7.0,59,0.00,,,0.00,Rainwise IP-100,2013-02-03 17:07:00,
2013-02-03 12:12:00,27.1,14.0,28.56,SE,135,1.0,5.0,55,0.00,,,0.00,Rainwise IP-100,2013-02-03 17:12:00,
2013-02-03 12:17:00,27.7,14.0,28.56,NE,45,0.0,6.0,55,0.00,,,0.00,Rainwise IP-100,2013-02-03 17:17:00,
2013-02-03 12:22:00,28.9,14.0,28.56,WNW,292,3.0,6.0,52,0.00,,,0.00,Rainwise IP-100,2013-02-03 17:22:00,
2013-02-03 12:27:00,29.8,14.0,28.56,West,270,0.0,6.0,49,0.00,,,0.00,Rainwise IP-100,2013-02-03 17:27:00,
2013-02-03 12:32:00,30.4,16.0,28.55,SSE,157,0.0,5.0,50,0.00,,,0.00,Rainwise IP-100,2013-02-03 17:32:00,
2013-02-03 12:37:00,30.9,16.0,28.55,West,270,6.0,7.0,50,0.00,,,0.00,Rainwise IP-100,2013-02-03 17:37:00,
2013-02-03 12:42:00,30.7,14.0,28.55,NE,45,0.0,7.0,49,0.00,,,0.00,Rainwise IP-100,2013-02-03 17:42:00,
2013-02-03 12:47:00,30.3,14.0,28.55,North,360,2.0,6.0,48,0.00,,,0.00,Rainwise IP-100,2013-02-03 17:47:00,
2013-02-03 12:52:00,29.8,14.0,28.54,WNW,292,3.0,9.0,49,0.00,,,0.00,Rainwise IP-100,2013-02-03 17:52:00,
2013-02-03 12:57:00,29.5,14.0,28.54,NW,315,0.0,6.0,48,0.00,,,0.00,Rainwise IP-100,2013-02-03 17:57:00,
2013-02-03 13:02:00,29.3,14.0,28.54,WNW,292,1.0,7.0,48,0.00,,,0.00,Rainwise IP-100,2013-02-03 18:02:00,
2013-02-03 13:07:00,29.1,14.0,28.53,WSW,247,5.0,6.0,53,0.00,,,0.00,Rainwise IP-100,2013-02-03 18:07:00,
2013-02-03 13:12:00,29.7,14.0,28.53,WNW,292,1.0,7.0,48,0.00,,,0.00,Rainwise IP-100,2013-02-03 18:12:00,
2013-02-03 13:17:00,29.9,16.0,28.53,SW,225,2.0,7.0,51,0.00,,,0.00,Rainwise IP-100,2013-02-03 18:17:00,
2013-02-03 13:22:00,29.5,14.0,28.53,SW,225,0.0,7.0,49,0.00,,,0.00,Rainwise IP-100,2013-02-03 18:22:00,
2013-02-03 13:27:00,29.9,14.0,28.52,WNW,292,0.0,6.0,48,0.00,,,0.00,Rainwise IP-100,2013-02-03 18:27:00,
2013-02-03 13:32:00,29.9,16.0,28.52,West,270,4.0,6.0,50,0.00,,,0.00,Rainwise IP-100,2013-02-03 18:32:00,
2013-02-03 13:37:00,29.5,16.0,28.52,West,270,5.0,6.0,50,0.00,,,0.00,Rainwise IP-100,2013-02-03 18:37:00,
2013-02-03 13:42:00,29.4,14.0,28.52,NW,315,1.0,7.0,49,0.00,,,0.00,Rainwise IP-100,2013-02-03 18:42:00,
2013-02-03 13:47:00,29.2,14.0,28.51,NW,315,3.0,7.0,50,0.00,,,0.00,Rainwise IP-100,2013-02-03 18:47:00,
2013-02-03 13:52:00,29.0,14.0,28.51,ENE,67,0.0,6.0,48,0.00,,,0.00,Rainwise IP-100,2013-02-03 18:52:00,
2013-02-03 13:57:00,29.0,14.0,28.51,ENE,67,1.0,4.0,48,0.00,,,0.00,Rainwise IP-100,2013-02-03 18:57:00,
2013-02-03 14:02:00,29.0,14.0,28.51,WNW,292,4.0,5.0,52,0.00,,,0.00,Rainwise IP-100,2013-02-03 19:02:00,
2013-02-03 14:07:00,29.1,14.0,28.51,NW,315,0.0,6.0,50,0.00,,,0.00,Rainwise IP-100,2013-02-03 19:07:00,
2013-02-03 14:12:00,28.6,14.0,28.51,SW,225,2.0,6.0,50,0.00,,,0.00,Rainwise IP-100,2013-02-03 19:12:00,
2013-02-03 14:17:00,27.9,14.0,28.50,SSW,202,1.0,6.0,52,0.00,,,0.00,Rainwise IP-100,2013-02-03 19:17:00,
2013-02-03 14:22:00,27.9,14.0,28.50,WNW,292,1.0,5.0,52,0.00,,,0.00,Rainwise IP-100,2013-02-03 19:22:00,
2013-02-03 14:27:00,27.9,14.0,28.50,West,270,4.0,5.0,53,0.00,,,0.00,Rainwise IP-100,2013-02-03 19:27:00,
2013-02-03 14:32:00,27.5,14.0,28.50,SW,225,2.0,6.0,52,0.00,,,0.00,Rainwise IP-100,2013-02-03 19:32:00,
2013-02-03 14:37:00,26.9,14.0,28.50,NE,45,5.0,5.0,53,0.00,,,0.00,Rainwise IP-100,2013-02-03 19:37:00,
2013-02-03 14:42:00,26.6,14.0,28.49,ESE,112,3.0,5.0,55,0.00,,,0.00,Rainwise IP-100,2013-02-03 19:42:00,
2013-02-03 14:47:00,26.5,16.0,28.49,SE,135,0.0,5.0,57,0.00,,,0.00,Rainwise IP-100,2013-02-03 19:47:00,
2013-02-03 14:52:00,26.8,14.0,28.49,SW,225,6.0,6.0,56,0.00,,,0.00,Rainwise IP-100,2013-02-03 19:52:00,
2013-02-03 14:57:00,26.8,14.0,28.49,ESE,112,0.0,6.0,52,0.00,,,0.00,Rainwise IP-100,2013-02-03 19:57:00,
2013-02-03 15:02:00,26.9,14.0,28.49,SE,135,0.0,6.0,52,0.00,,,0.00,Rainwise IP-100,2013-02-03 20:02:00,
2013-02-03 15:07:00,27.1,14.0,28.49,WSW,247,4.0,5.0,53,0.00,,,0.00,Rainwise IP-100,2013-02-03 20:07:00,
2013-02-03 15:12:00,26.8,14.0,28.48,SW,225,3.0,6.0,52,0.00,,,0.00,Rainwise IP-100,2013-02-03 20:12:00,
2013-02-03 15:17:00,26.6,14.0,28.48,East,90,0.0,4.0,54,0.00,,,0.00,Rainwise IP-100,2013-02-03 20:17:00,
2013-02-03 15:22:00,26.6,14.0,28.48,SW,225,0.0,3.0,55,0.00,,,0.00,Rainwise IP-100,2013-02-03 20:22:00,
2013-02-03 15:27:00,26.5,14.0,28.48,SW,225,0.0,3.0,55,0.00,,,0.00,Rainwise IP-100,2013-02-03 20:27:00,
2013-02-03 15:32:00,26.4,11.0,28.48,SSE,157,4.0,6.0,53,0.00,,,0.00,Rainwise IP-100,2013-02-03 20:32:00,
2013-02-03 15:37:00,26.2,14.0,28.49,SE,135,0.0,5.0,55,0.00,,,0.00,Rainwise IP-100,2013-02-03 20:37:00,
2013-02-03 15:42:00,25.9,14.0,28.49,SW,225,0.0,2.0,54,0.00,,,0.00,Rainwise IP-100,2013-02-03 20:42:00,
2013-02-03 15:47:00,25.9,14.0,28.49,WNW,292,0.0,3.0,55,0.00,,,0.00,Rainwise IP-100,2013-02-03 20:47:00,
2013-02-03 15:52:00,25.9,14.0,28.48,WNW,292,0.0,1.0,54,0.00,,,0.00,Rainwise IP-100,2013-02-03 20:52:00,
2013-02-03 15:57:00,25.7,14.0,28.48,WNW,292,0.0,1.0,56,0.00,,,0.00,Rainwise IP-100,2013-02-03 20:57:00,
2013-02-03 16:02:00,25.5,14.0,28.48,WNW,292,0.0,2.0,56,0.00,,,0.00,Rainwise IP-100,2013-02-03 21:02:00,
2013-02-03 16:07:00,25.4,14.0,28.48,WNW,292,0.0,1.0,56,0.00,,,0.00,Rainwise IP-100,2013-02-03 21:07:00,
2013-02-03 16:12:00,25.1,14.0,28.48,WNW,292,0.0,0.0,56,0.00,,,0.00,Rainwise IP-100,2013-02-03 21:12:00,
2013-02-03 16:17:00,24.9,14.0,28.48,WNW,292,0.0,0.0,57,0.00,,,0.00,Rainwise IP-100,2013-02-03 21:17:00,
2013-02-03 16:22:00,24.7,14.0,28.47,North,360,0.0,2.0,58,0.00,,,0.00,Rainwise IP-100,2013-02-03 21:22:00,
2013-02-03 16:27:00,24.6,14.0,28.47,North,360,0.0,0.0,59,0.00,,,0.00,Rainwise IP-100,2013-02-03 21:27:00,
2013-02-03 16:32:00,24.4,14.0,28.47,SE,135,0.0,5.0,59,0.00,,,0.00,Rainwise IP-100,2013-02-03 21:32:00,
2013-02-03 16:37:00,24.2,11.0,28.47,SE,135,0.0,2.0,57,0.00,,,0.00,Rainwise IP-100,2013-02-03 21:37:00,
2013-02-03 16:42:00,23.9,14.0,28.47,SE,135,0.0,0.0,61,0.00,,,0.00,Rainwise IP-100,2013-02-03 21:42:00,
2013-02-03 16:47:00,23.8,14.0,28.47,SE,135,0.0,0.0,61,0.00,,,0.00,Rainwise IP-100,2013-02-03 21:47:00,
2013-02-03 16:52:00,23.7,14.0,28.47,SE,135,0.0,0.0,60,0.00,,,0.00,Rainwise IP-100,2013-02-03 21:52:00,
2013-02-03 16:57:00,23.4,11.0,28.46,SE,135,0.0,0.0,59,0.00,,,0.00,Rainwise IP-100,2013-02-03 21:57:00,
2013-02-03 17:02:00,23.0,11.0,28.46,SE,135,0.0,0.0,61,0.00,,,0.00,Rainwise IP-100,2013-02-03 22:02:00,
2013-02-03 17:07:00,22.8,14.0,28.46,SE,135,0.0,0.0,63,0.00,,,0.00,Rainwise IP-100,2013-02-03 22:07:00,
2013-02-03 17:12:00,22.5,14.0,28.46,SE,135,0.0,0.0,65,0.00,,,0.00,Rainwise IP-100,2013-02-03 22:12:00,
2013-02-03 17:17:00,22.1,14.0,28.46,SE,135,0.0,0.0,64,0.00,,,0.00,Rainwise IP-100,2013-02-03 22:17:00,
2013-02-03 17:22:00,22.1,14.0,28.45,SE,135,0.0,0.0,65,0.00,,,0.00,Rainwise IP-100,2013-02-03 22:22:00,
2013-02-03 17:27:00,21.9,14.0,28.45,SE,135,0.0,0.0,65,0.00,,,0.00,Rainwise IP-100,2013-02-03 22:27:00,
2013-02-03 17:32:00,21.6,14.0,28.45,SE,135,0.0,0.0,65,0.00,,,0.00,Rainwise IP-100,2013-02-03 22:32:00,
2013-02-03 17:37:00,21.2,11.0,28.45,SE,135,0.0,0.0,65,0.00,,,0.00,Rainwise IP-100,2013-02-03 22:37:00,
2013-02-03 17:42:00,20.9,11.0,28.46,SE,135,0.0,0.0,66,0.00,,,0.00,Rainwise IP-100,2013-02-03 22:42:00,
2013-02-03 17:47:00,20.7,11.0,28.46,SE,135,0.0,0.0,68,0.00,,,0.00,Rainwise IP-100,2013-02-03 22:47:00,
2013-02-03 17:52:00,20.5,14.0,28.46,SE,135,0.0,0.0,69,0.00,,,0.00,Rainwise IP-100,2013-02-03 22:52:00,
2013-02-03 17:57:00,20.3,14.0,28.46,SE,135,0.0,0.0,71,0.00,,,0.00,Rainwise IP-100,2013-02-03 22:57:00,
2013-02-03 18:02:00,20.3,14.0,28.46,SE,135,0.0,0.0,71,0.00,,,0.00,Rainwise IP-100,2013-02-03 23:02:00,
2013-02-03 18:07:00,20.7,11.0,28.46,SE,135,0.0,0.0,67,0.00,,,0.00,Rainwise IP-100,2013-02-03 23:07:00,
2013-02-03 18:12:00,21.3,11.0,28.46,SE,135,0.0,0.0,67,0.00,,,0.00,Rainwise IP-100,2013-02-03 23:12:00,
2013-02-03 18:17:00,21.6,14.0,28.45,SE,135,0.0,0.0,66,0.00,,,0.00,Rainwise IP-100,2013-02-03 23:17:00,
2013-02-03 18:22:00,21.9,14.0,28.45,SE,135,0.0,0.0,65,0.00,,,0.00,Rainwise IP-100,2013-02-03 23:22:00,
2013-02-03 18:27:00,22.2,14.0,28.45,SE,135,0.0,0.0,65,0.00,,,0.00,Rainwise IP-100,2013-02-03 23:27:00,
2013-02-03 18:32:00,22.5,14.0,28.45,SE,135,0.0,0.0,63,0.00,,,0.00,Rainwise IP-100,2013-02-03 23:32:00,
2013-02-03 18:37:00,22.6,14.0,28.45,SE,135,0.0,0.0,63,0.00,,,0.00,Rainwise IP-100,2013-02-03 23:37:00,
2013-02-03 18:42:00,22.7,14.0,28.45,SE,135,0.0,0.0,63,0.00,,,0.00,Rainwise IP-100,2013-02-03 23:42:00,
2013-02-03 18:47:00,22.8,14.0,28.45,SE,135,0.0,0.0,63,0.00,,,0.00,Rainwise IP-100,2013-02-03 23:47:00,
2013-02-03 18:52:00,22.9,14.0,28.45,SE,135,0.0,0.0,64,0.00,,,0.00,Rainwise IP-100,2013-02-03 23:52:00,
2013-02-03 18:57:00,22.8,14.0,28.45,ENE,67,2.0,0.0,66,0.00,,,0.00,Rainwise IP-100,2013-02-03 23:57:00,
2013-02-03 19:02:00,22.6,14.0,28.45,ENE,67,0.0,3.0,66,0.00,,,0.00,Rainwise IP-100,2013-02-04 00:02:00,
2013-02-03 19:07:00,22.4,14.0,28.45,ENE,67,1.0,2.0,69,0.00,,,0.00,Rainwise IP-100,2013-02-04 00:07:00,
2013-02-03 19:12:00,22.2,14.0,28.45,NNE,22,0.0,2.0,70,0.00,,,0.00,Rainwise IP-100,2013-02-04 00:12:00,
2013-02-03 19:17:00,22.1,14.0,28.45,NNE,22,0.0,1.0,70,0.00,,,0.00,Rainwise IP-100,2013-02-04 00:17:00,
2013-02-03 19:22:00,21.9,14.0,28.45,NNE,22,0.0,2.0,70,0.00,,,0.00,Rainwise IP-100,2013-02-04 00:22:00,
2013-02-03 19:27:00,21.9,16.0,28.45,NNE,22,0.0,2.0,71,0.00,,,0.00,Rainwise IP-100,2013-02-04 00:27:00,
2013-02-03 19:32:00,21.8,16.0,28.45,NNE,22,0.0,2.0,72,0.00,,,0.00,Rainwise IP-100,2013-02-04 00:32:00,
2013-02-03 19:37:00,21.7,16.0,28.45,NNE,22,0.0,1.0,74,0.00,,,0.00,Rainwise IP-100,2013-02-04 00:37:00,
2013-02-03 19:42:00,21.8,16.0,28.45,NNE,22,0.0,2.0,73,0.00,,,0.00,Rainwise IP-100,2013-02-04 00:42:00,
2013-02-03 19:47:00,21.9,16.0,28.45,NNE,22,0.0,0.0,75,0.00,,,0.00,Rainwise IP-100,2013-02-04 00:47:00,
2013-02-03 19:52:00,21.7,16.0,28.45,NNE,22,0.0,0.0,77,0.00,,,0.00,Rainwise IP-100,2013-02-04 00:52:00,
2013-02-03 19:57:00,21.6,16.0,28.45,NNE,22,0.0,0.0,79,0.00,,,0.00,Rainwise IP-100,2013-02-04 00:57:00,
2013-02-03 20:02:00,21.4,14.0,28.45,NNE,22,0.0,0.0,76,0.00,,,0.00,Rainwise IP-100,2013-02-04 01:02:00,
2013-02-03 20:07:00,21.3,14.0,28.45,NNE,22,0.0,0.0,77,0.00,,,0.00,Rainwise IP-100,2013-02-04 01:07:00,
2013-02-03 20:12:00,21.2,14.0,28.46,NNE,22,0.0,0.0,77,0.00,,,0.00,Rainwise IP-100,2013-02-04 01:12:00,
2013-02-03 20:17:00,21.1,16.0,28.46,NNE,22,0.0,0.0,80,0.00,,,0.00,Rainwise IP-100,2013-02-04 01:17:00,
2013-02-03 20:22:00,21.1,16.0,28.46,NNE,22,0.0,0.0,81,0.00,,,0.00,Rainwise IP-100,2013-02-04 01:22:00,
2013-02-03 20:27:00,21.1,16.0,28.46,NNE,22,0.0,0.0,79,0.00,,,0.00,Rainwise IP-100,2013-02-04 01:27:00,
2013-02-03 20:32:00,20.9,16.0,28.46,NNE,22,0.0,0.0,79,0.00,,,0.00,Rainwise IP-100,2013-02-04 01:32:00,
2013-02-03 20:37:00,20.9,16.0,28.47,NNE,22,0.0,0.0,79,0.00,,,0.00,Rainwise IP-100,2013-02-04 01:37:00,
2013-02-03 20:42:00,20.8,16.0,28.46,NNE,22,0.0,0.0,78,0.00,,,0.00,Rainwise IP-100,2013-02-04 01:42:00,
2013-02-03 20:47:00,20.8,16.0,28.46,NNE,22,0.0,0.0,80,0.00,,,0.00,Rainwise IP-100,2013-02-04 01:47:00,
2013-02-03 20:52:00,20.7,16.0,28.46,NNE,22,0.0,0.0,79,0.00,,,0.00,Rainwise IP-100,2013-02-04 01:52:00,
2013-02-03 20:57:00,20.6,16.0,28.46,NNE,22,0.0,1.0,78,0.00,,,0.00,Rainwise IP-100,2013-02-04 01:57:00,
2013-02-03 21:02:00,20.4,16.0,28.46,NNE,22,0.0,0.0,81,0.00,,,0.00,Rainwise IP-100,2013-02-04 02:02:00,
2013-02-03 21:07:00,20.2,16.0,28.46,NNE,22,0.0,0.0,81,0.00,,,0.00,Rainwise IP-100,2013-02-04 02:07:00,
2013-02-03 21:12:00,19.9,16.0,28.46,NNE,22,0.0,0.0,80,0.00,,,0.00,Rainwise IP-100,2013-02-04 02:12:00,
2013-02-03 21:17:00,19.6,16.0,28.46,NNE,22,0.0,0.0,80,0.00,,,0.00,Rainwise IP-100,2013-02-04 02:17:00,
2013-02-03 21:22:00,19.5,16.0,28.45,NNE,22,0.0,2.0,80,0.00,,,0.00,Rainwise IP-100,2013-02-04 02:22:00,
2013-02-03 21:27:00,19.6,16.0,28.45,NNE,22,1.0,2.0,80,0.00,,,0.00,Rainwise IP-100,2013-02-04 02:27:00,
2013-02-03 21:32:00,19.8,16.0,28.45,NNE,22,0.0,2.0,79,0.00,,,0.00,Rainwise IP-100,2013-02-04 02:32:00,
2013-02-03 21:37:00,19.8,16.0,28.45,NNE,22,0.0,0.0,79,0.00,,,0.00,Rainwise IP-100,2013-02-04 02:37:00,
2013-02-03 21:42:00,19.6,16.0,28.45,NNE,22,0.0,0.0,81,0.00,,,0.00,Rainwise IP-100,2013-02-04 02:42:00,
2013-02-03 21:47:00,19.5,16.0,28.45,NNE,22,1.0,0.0,80,0.00,,,0.00,Rainwise IP-100,2013-02-04 02:47:00,
2013-02-03 21:52:00,19.7,16.0,28.45,NNE,22,1.0,3.0,79,0.00,,,0.00,Rainwise IP-100,2013-02-04 02:52:00,
2013-02-03 21:57:00,19.9,16.0,28.45,NNE,22,0.0,1.0,80,0.00,,,0.00,Rainwise IP-100,2013-02-04 02:57:00,
2013-02-03 22:02:00,19.9,14.0,28.44,NNE,22,0.0,1.0,76,0.00,,,0.00,Rainwise IP-100,2013-02-04 03:02:00,
2013-02-03 22:07:00,20.1,14.0,28.44,NNE,22,0.0,2.0,76,0.00,,,0.00,Rainwise IP-100,2013-02-04 03:07:00,
2013-02-03 22:12:00,20.1,16.0,28.44,NNE,22,2.0,2.0,78,0.00,,,0.00,Rainwise IP-100,2013-02-04 03:12:00,
2013-02-03 22:17:00,20.1,14.0,28.44,NNE,22,0.0,2.0,76,0.00,,,0.00,Rainwise IP-100,2013-02-04 03:17:00,
2013-02-03 22:22:00,19.9,14.0,28.44,NNE,22,0.0,0.0,77,0.00,,,0.00,Rainwise IP-100,2013-02-04 03:22:00,
2013-02-03 22:27:00,19.8,14.0,28.44,NNE,22,0.0,0.0,76,0.00,,,0.00,Rainwise IP-100,2013-02-04 03:27:00,
2013-02-03 22:32:00,19.7,16.0,28.44,NNE,22,0.0,0.0,78,0.00,,,0.00,Rainwise IP-100,2013-02-04 03:32:00,
2013-02-03 22:37:00,19.5,14.0,28.44,NNE,22,0.0,0.0,76,0.00,,,0.00,Rainwise IP-100,2013-02-04 03:37:00,
2013-02-03 22:42:00,19.3,16.0,28.44,NNE,22,0.0,0.0,78,0.00,,,0.00,Rainwise IP-100,2013-02-04 03:42:00,
2013-02-03 22:47:00,19.1,16.0,28.44,NNE,22,0.0,1.0,79,0.00,,,0.00,Rainwise IP-100,2013-02-04 03:47:00,
2013-02-03 22:52:00,19.0,16.0,28.44,NNE,22,0.0,1.0,79,0.00,,,0.00,Rainwise IP-100,2013-02-04 03:52:00,
2013-02-03 22:57:00,18.9,16.0,28.44,NNE,22,0.0,1.0,80,0.00,,,0.00,Rainwise IP-100,2013-02-04 03:57:00,
2013-02-03 23:02:00,18.8,16.0,28.43,NNE,22,0.0,1.0,80,0.00,,,0.00,Rainwise IP-100,2013-02-04 04:02:00,
2013-02-03 23:07:00,18.8,16.0,28.43,NNE,22,0.0,1.0,79,0.00,,,0.00,Rainwise IP-100,2013-02-04 04:07:00,
2013-02-03 23:12:00,18.8,16.0,28.43,NNE,22,0.0,0.0,79,0.00,,,0.00,Rainwise IP-100,2013-02-04 04:12:00,
2013-02-03 23:17:00,18.7,16.0,28.43,NNE,22,0.0,0.0,78,0.00,,,0.00,Rainwise IP-100,2013-02-04 04:17:00,
2013-02-03 23:22:00,18.7,14.0,28.43,NNE,22,0.0,0.0,76,0.00,,,0.00,Rainwise IP-100,2013-02-04 04:22:00,
2013-02-03 23:27:00,19.0,14.0,28.43,NE,45,0.0,3.0,76,0.00,,,0.00,Rainwise IP-100,2013-02-04 04:27:00,
2013-02-03 23:32:00,18.9,14.0,28.43,NE,45,0.0,1.0,75,0.00,,,0.00,Rainwise IP-100,2013-02-04 04:32:00,
2013-02-03 23:37:00,18.9,14.0,28.42,NE,45,0.0,1.0,76,0.00,,,0.00,Rainwise IP-100,2013-02-04 04:37:00,
2013-02-03 23:42:00,18.9,16.0,28.42,NE,45,0.0,0.0,79,0.00,,,0.00,Rainwise IP-100,2013-02-04 04:42:00,
2013-02-03 23:47:00,18.7,16.0,28.42,NE,45,0.0,1.0,78,0.00,,,0.00,Rainwise IP-100,2013-02-04 04:47:00,
2013-02-03 23:52:00,18.3,14.0,28.42,NE,45,0.0,0.0,76,0.00,,,0.00,Rainwise IP-100,2013-02-04 04:52:00,
2013-02-03 23:57:00,18.2,14.0,28.42,NE,45,0.0,1.0,76,0.00,,,0.00,Rainwise IP-100,2013-02-04 04:57:00,